owner,sensor,date,latitude,longitude,vertical_datum,wind_speed,wind_to_direction,wind_speed_of_gust,qcFlag 
TCOON,ioos:station:TCOON:031:1,2013-05-01T00:00:00Z,28.4073,-96.7122,0.0,6.2,100.0,,'1111122,1111122,1111122' 
TCOON,ioos:station:TCOON:031:1,2013-05-01T00:06:00Z,28.4073,-96.7122,0.0,6.7,103.0,8.8,'11111222,11111222,11111222' 
TCOON,ioos:station:TCOON:031:1,2013-05-01T00:12:00Z,28.4073,-96.7122,0.0,6.8,108.0,9.5,'11111222,11111222,11111222' 
TCOON,ioos:station:TCOON:031:1,2013-05-01T00:18:00Z,28.4073,-96.7122,0.0,5.5,108.0,7.2,'11111222,11111222,11111222' 
TCOON,ioos:station:TCOON:031:1,2013-05-01T00:24:00Z,28.4073,-96.7122,0.0,6.4,105.0,7.9,'11111222,11111222,11111222' 
TCOON,ioos:station:TCOON:031:1,2013-05-01T00:30:00Z,28.4073,-96.7122,0.0,5.5,109.0,7.3,'11111222,11111222,11111222' 
TCOON,ioos:station:TCOON:031:1,2013-05-01T00:36:00Z,28.4073,-96.7122,0.0,5.5,113.0,7.9,'11111222,11111222,11111222' 
TCOON,ioos:station:TCOON:031:1,2013-05-01T00:42:00Z,28.4073,-96.7122,0.0,5.6,116.0,7.3,'11111222,11111222,11111222' 
TCOON,ioos:station:TCOON:031:1,2013-05-01T00:48:00Z,28.4073,-96.7122,0.0,5.9,117.0,7.7,'11111222,11111222,11111222' 
TCOON,ioos:station:TCOON:031:1,2013-05-01T00:54:00Z,28.4073,-96.7122,0.0,6.2,122.0,7.5,'11111222,11111222,11111222' 
TCOON,ioos:station:TCOON:031:1,2013-05-01T01:00:00Z,28.4073,-96.7122,0.0,5.7,110.0,,'1111122,1111122,1111122' 
TCOON,ioos:station:TCOON:031:1,2013-05-01T01:06:00Z,28.4073,-96.7122,0.0,6.1,115.0,10.1,'11111222,11111222,11111222' 
TCOON,ioos:station:TCOON:031:1,2013-05-01T01:12:00Z,28.4073,-96.7122,0.0,6.6,119.0,8.9,'11111222,11111222,11111222' 
TCOON,ioos:station:TCOON:031:1,2013-05-01T01:18:00Z,28.4073,-96.7122,0.0,5.6,112.0,7.9,'11111222,11111222,11111222' 
TCOON,ioos:station:TCOON:031:1,2013-05-01T01:24:00Z,28.4073,-96.7122,0.0,5.3,114.0,7.1,'11111222,11111222,11111222' 
TCOON,ioos:station:TCOON:031:1,2013-05-01T01:30:00Z,28.4073,-96.7122,0.0,5.1,121.0,6.7,'11111222,11111222,11111222' 
TCOON,ioos:station:TCOON:031:1,2013-05-01T01:36:00Z,28.4073,-96.7122,0.0,4.8,117.0,7.3,'11111222,11111222,11111222' 
TCOON,ioos:station:TCOON:031:1,2013-05-01T01:42:00Z,28.4073,-96.7122,0.0,6.0,114.0,7.3,'11111222,11111222,11111222' 
TCOON,ioos:station:TCOON:031:1,2013-05-01T01:48:00Z,28.4073,-96.7122,0.0,4.8,119.0,7.0,'11111222,11111222,11111222' 
TCOON,ioos:station:TCOON:031:1,2013-05-01T01:54:00Z,28.4073,-96.7122,0.0,5.5,118.0,8.2,'11111222,11111222,11111222' 
TCOON,ioos:station:TCOON:031:1,2013-05-01T02:00:00Z,28.4073,-96.7122,0.0,4.6,120.0,,'1111122,1111122,1111122' 
TCOON,ioos:station:TCOON:031:1,2013-05-01T02:06:00Z,28.4073,-96.7122,0.0,5.1,111.0,6.8,'11111222,11111222,11111222' 
TCOON,ioos:station:TCOON:031:1,2013-05-01T02:12:00Z,28.4073,-96.7122,0.0,5.3,110.0,6.8,'11111222,11111222,11111222' 
TCOON,ioos:station:TCOON:031:1,2013-05-01T02:18:00Z,28.4073,-96.7122,0.0,6.1,119.0,7.9,'11111222,11111222,11111222' 
TCOON,ioos:station:TCOON:031:1,2013-05-01T02:24:00Z,28.4073,-96.7122,0.0,6.1,120.0,7.3,'11111222,11111222,11111222' 
TCOON,ioos:station:TCOON:031:1,2013-05-01T02:30:00Z,28.4073,-96.7122,0.0,5.8,114.0,7.3,'11111222,11111222,11111222' 
TCOON,ioos:station:TCOON:031:1,2013-05-01T02:36:00Z,28.4073,-96.7122,0.0,5.2,116.0,8.3,'11111222,11111222,11111222' 
TCOON,ioos:station:TCOON:031:1,2013-05-01T02:42:00Z,28.4073,-96.7122,0.0,5.5,116.0,7.7,'11111222,11111222,11111222' 
TCOON,ioos:station:TCOON:031:1,2013-05-01T02:48:00Z,28.4073,-96.7122,0.0,5.7,112.0,7.7,'11111222,11111222,11111222' 
TCOON,ioos:station:TCOON:031:1,2013-05-01T02:54:00Z,28.4073,-96.7122,0.0,4.9,111.0,7.8,'11111222,11111222,11111222' 
TCOON,ioos:station:TCOON:031:1,2013-05-01T03:00:00Z,28.4073,-96.7122,0.0,5.1,120.0,,'1111122,1111122,1111122' 
TCOON,ioos:station:TCOON:031:1,2013-05-01T03:06:00Z,28.4073,-96.7122,0.0,5.2,108.0,7.5,'11111222,11111222,11111222' 
TCOON,ioos:station:TCOON:031:1,2013-05-01T03:12:00Z,28.4073,-96.7122,0.0,4.5,114.0,6.1,'11111222,11111222,11111222' 
TCOON,ioos:station:TCOON:031:1,2013-05-01T03:18:00Z,28.4073,-96.7122,0.0,4.6,107.0,6.2,'11111222,11111222,11111222' 
TCOON,ioos:station:TCOON:031:1,2013-05-01T03:24:00Z,28.4073,-96.7122,0.0,4.2,109.0,5.6,'11111222,11111222,11111222' 
TCOON,ioos:station:TCOON:031:1,2013-05-01T03:30:00Z,28.4073,-96.7122,0.0,4.2,109.0,5.5,'11111222,11111222,11111222' 
TCOON,ioos:station:TCOON:031:1,2013-05-01T03:36:00Z,28.4073,-96.7122,0.0,4.1,108.0,5.7,'11111222,11111222,11111222' 
TCOON,ioos:station:TCOON:031:1,2013-05-01T03:42:00Z,28.4073,-96.7122,0.0,4.3,108.0,6.1,'11111222,11111222,11111222' 
TCOON,ioos:station:TCOON:031:1,2013-05-01T03:48:00Z,28.4073,-96.7122,0.0,4.9,115.0,6.3,'11111222,11111222,11111222' 
TCOON,ioos:station:TCOON:031:1,2013-05-01T03:54:00Z,28.4073,-96.7122,0.0,4.9,118.0,6.2,'11111222,11111222,11111222' 
TCOON,ioos:station:TCOON:031:1,2013-05-01T04:00:00Z,28.4073,-96.7122,0.0,4.1,110.0,,'1111122,1111122,1111122' 
TCOON,ioos:station:TCOON:031:1,2013-05-01T04:06:00Z,28.4073,-96.7122,0.0,4.9,118.0,6.6,'11111222,11111222,11111222' 
TCOON,ioos:station:TCOON:031:1,2013-05-01T04:12:00Z,28.4073,-96.7122,0.0,5.7,118.0,7.7,'11111222,11111222,11111222' 
TCOON,ioos:station:TCOON:031:1,2013-05-01T04:18:00Z,28.4073,-96.7122,0.0,5.5,117.0,7.3,'11111222,11111222,11111222' 
TCOON,ioos:station:TCOON:031:1,2013-05-01T04:24:00Z,28.4073,-96.7122,0.0,4.7,119.0,6.3,'11111222,11111222,11111222' 
TCOON,ioos:station:TCOON:031:1,2013-05-01T04:30:00Z,28.4073,-96.7122,0.0,5.0,121.0,6.2,'11111222,11111222,11111222' 
TCOON,ioos:station:TCOON:031:1,2013-05-01T04:36:00Z,28.4073,-96.7122,0.0,4.4,122.0,6.5,'11111222,11111222,11111222' 
TCOON,ioos:station:TCOON:031:1,2013-05-01T04:42:00Z,28.4073,-96.7122,0.0,4.8,125.0,5.9,'11111222,11111222,11111222' 
TCOON,ioos:station:TCOON:031:1,2013-05-01T04:48:00Z,28.4073,-96.7122,0.0,4.7,123.0,6.1,'11111222,11111222,11111222' 
TCOON,ioos:station:TCOON:031:1,2013-05-01T04:54:00Z,28.4073,-96.7122,0.0,5.3,127.0,6.6,'11111222,11111222,11111222' 
TCOON,ioos:station:TCOON:031:1,2013-05-01T05:00:00Z,28.4073,-96.7122,0.0,4.6,120.0,,'1111122,1111122,1111122' 
TCOON,ioos:station:TCOON:031:1,2013-05-01T05:06:00Z,28.4073,-96.7122,0.0,4.0,123.0,5.5,'11111222,11111222,11111222' 
TCOON,ioos:station:TCOON:031:1,2013-05-01T05:12:00Z,28.4073,-96.7122,0.0,3.6,119.0,5.1,'11111222,11111222,11111222' 
TCOON,ioos:station:TCOON:031:1,2013-05-01T05:18:00Z,28.4073,-96.7122,0.0,3.6,125.0,5.0,'11111222,11111222,11111222' 
TCOON,ioos:station:TCOON:031:1,2013-05-01T05:24:00Z,28.4073,-96.7122,0.0,4.5,126.0,5.2,'11111222,11111222,11111222' 
TCOON,ioos:station:TCOON:031:1,2013-05-01T05:30:00Z,28.4073,-96.7122,0.0,4.1,114.0,5.1,'11111222,11111222,11111222' 
TCOON,ioos:station:TCOON:031:1,2013-05-01T05:36:00Z,28.4073,-96.7122,0.0,3.7,116.0,5.3,'11111222,11111222,11111222' 
TCOON,ioos:station:TCOON:031:1,2013-05-01T05:42:00Z,28.4073,-96.7122,0.0,3.8,117.0,5.2,'11111222,11111222,11111222' 
TCOON,ioos:station:TCOON:031:1,2013-05-01T05:48:00Z,28.4073,-96.7122,0.0,4.1,116.0,5.0,'11111222,11111222,11111222' 
TCOON,ioos:station:TCOON:031:1,2013-05-01T05:54:00Z,28.4073,-96.7122,0.0,3.4,107.0,4.7,'11111222,11111222,11111222' 
TCOON,ioos:station:TCOON:031:1,2013-05-01T06:00:00Z,28.4073,-96.7122,0.0,3.6,120.0,,'1111122,1111122,1111122' 
TCOON,ioos:station:TCOON:031:1,2013-05-01T06:06:00Z,28.4073,-96.7122,0.0,2.6,108.0,3.5,'11111222,11111222,11111222' 
TCOON,ioos:station:TCOON:031:1,2013-05-01T06:12:00Z,28.4073,-96.7122,0.0,2.5,107.0,4.0,'11111222,11111222,11111222' 
TCOON,ioos:station:TCOON:031:1,2013-05-01T06:18:00Z,28.4073,-96.7122,0.0,2.3,113.0,3.1,'11111222,11111222,11111222' 
TCOON,ioos:station:TCOON:031:1,2013-05-01T06:24:00Z,28.4073,-96.7122,0.0,2.1,105.0,3.1,'11111222,11111222,11111222' 
TCOON,ioos:station:TCOON:031:1,2013-05-01T06:30:00Z,28.4073,-96.7122,0.0,1.9,102.0,2.8,'11111222,11111222,11111222' 
TCOON,ioos:station:TCOON:031:1,2013-05-01T06:36:00Z,28.4073,-96.7122,0.0,2.3,115.0,2.8,'11111222,11111222,11111222' 
TCOON,ioos:station:TCOON:031:1,2013-05-01T06:42:00Z,28.4073,-96.7122,0.0,2.5,124.0,3.1,'11111222,11111222,11111222' 
TCOON,ioos:station:TCOON:031:1,2013-05-01T06:48:00Z,28.4073,-96.7122,0.0,3.1,128.0,3.5,'11111222,11111222,11111222' 
TCOON,ioos:station:TCOON:031:1,2013-05-01T06:54:00Z,28.4073,-96.7122,0.0,2.8,121.0,3.9,'11111222,11111222,11111222' 
TCOON,ioos:station:TCOON:031:1,2013-05-01T07:00:00Z,28.4073,-96.7122,0.0,2.6,120.0,,'1111122,1111122,1111122' 
TCOON,ioos:station:TCOON:031:1,2013-05-01T07:06:00Z,28.4073,-96.7122,0.0,2.0,95.0,2.8,'11111222,11111222,11111222' 
TCOON,ioos:station:TCOON:031:1,2013-05-01T07:12:00Z,28.4073,-96.7122,0.0,1.7,106.0,2.2,'11111222,11111222,11111222' 
TCOON,ioos:station:TCOON:031:1,2013-05-01T07:18:00Z,28.4073,-96.7122,0.0,1.5,119.0,2.4,'11111222,11111222,11111222' 
TCOON,ioos:station:TCOON:031:1,2013-05-01T07:24:00Z,28.4073,-96.7122,0.0,1.8,126.0,2.3,'11111222,11111222,11111222' 
TCOON,ioos:station:TCOON:031:1,2013-05-01T07:30:00Z,28.4073,-96.7122,0.0,2.1,131.0,2.8,'11111222,11111222,11111222' 
TCOON,ioos:station:TCOON:031:1,2013-05-01T07:36:00Z,28.4073,-96.7122,0.0,2.0,123.0,2.5,'11111222,11111222,11111222' 
TCOON,ioos:station:TCOON:031:1,2013-05-01T07:42:00Z,28.4073,-96.7122,0.0,1.9,98.0,2.6,'11111222,11111222,11111222' 
TCOON,ioos:station:TCOON:031:1,2013-05-01T07:48:00Z,28.4073,-96.7122,0.0,0.8,84.0,2.2,'11111222,11111222,11111222' 
TCOON,ioos:station:TCOON:031:1,2013-05-01T07:54:00Z,28.4073,-96.7122,0.0,0.8,75.0,1.1,'11111222,11111222,11111222' 
TCOON,ioos:station:TCOON:031:1,2013-05-01T08:00:00Z,28.4073,-96.7122,0.0,2.1,120.0,,'1111122,1111122,1111122' 
TCOON,ioos:station:TCOON:031:1,2013-05-01T08:06:00Z,28.4073,-96.7122,0.0,0.8,96.0,1.4,'11111222,11111222,11111222' 
TCOON,ioos:station:TCOON:031:1,2013-05-01T08:12:00Z,28.4073,-96.7122,0.0,0.7,99.0,1.3,'11111222,11111222,11111222' 
TCOON,ioos:station:TCOON:031:1,2013-05-01T08:18:00Z,28.4073,-96.7122,0.0,1.0,42.0,1.3,'11111222,11111222,11111222' 
TCOON,ioos:station:TCOON:031:1,2013-05-01T08:24:00Z,28.4073,-96.7122,0.0,1.3,40.0,1.6,'11111222,11111222,11111222' 
TCOON,ioos:station:TCOON:031:1,2013-05-01T08:30:00Z,28.4073,-96.7122,0.0,1.4,37.0,1.9,'11111222,11111222,11111222' 
TCOON,ioos:station:TCOON:031:1,2013-05-01T08:36:00Z,28.4073,-96.7122,0.0,1.2,58.0,1.5,'11111222,11111222,11111222' 
TCOON,ioos:station:TCOON:031:1,2013-05-01T08:42:00Z,28.4073,-96.7122,0.0,1.3,54.0,1.8,'11111222,11111222,11111222' 
TCOON,ioos:station:TCOON:031:1,2013-05-01T08:48:00Z,28.4073,-96.7122,0.0,1.0,52.0,1.7,'11111222,11111222,11111222' 
TCOON,ioos:station:TCOON:031:1,2013-05-01T08:54:00Z,28.4073,-96.7122,0.0,0.9,53.0,1.5,'11111222,11111222,11111222' 
TCOON,ioos:station:TCOON:031:1,2013-05-01T09:00:00Z,28.4073,-96.7122,0.0,1.0,60.0,,'1111122,1111122,1111122' 
TCOON,ioos:station:TCOON:031:1,2013-05-01T09:06:00Z,28.4073,-96.7122,0.0,0.6,51.0,1.0,'11111222,11111222,11111222' 
TCOON,ioos:station:TCOON:031:1,2013-05-01T09:12:00Z,28.4073,-96.7122,0.0,0.8,48.0,1.2,'11111222,11111222,11111222' 
TCOON,ioos:station:TCOON:031:1,2013-05-01T09:18:00Z,28.4073,-96.7122,0.0,1.2,55.0,1.6,'11111222,11111222,11111222' 
TCOON,ioos:station:TCOON:031:1,2013-05-01T09:24:00Z,28.4073,-96.7122,0.0,0.8,56.0,1.3,'11111222,11111222,11111222' 
TCOON,ioos:station:TCOON:031:1,2013-05-01T09:30:00Z,28.4073,-96.7122,0.0,1.1,41.0,1.3,'11111222,11111222,11111222' 
TCOON,ioos:station:TCOON:031:1,2013-05-01T09:36:00Z,28.4073,-96.7122,0.0,0.8,50.0,1.3,'11111222,11111222,11111222' 
TCOON,ioos:station:TCOON:031:1,2013-05-01T09:42:00Z,28.4073,-96.7122,0.0,0.7,107.0,0.9,'11111222,11111222,11111222' 
TCOON,ioos:station:TCOON:031:1,2013-05-01T09:48:00Z,28.4073,-96.7122,0.0,1.2,73.0,1.6,'11111222,11111222,11111222' 
TCOON,ioos:station:TCOON:031:1,2013-05-01T09:54:00Z,28.4073,-96.7122,0.0,1.2,59.0,1.6,'11111222,11111222,11111222' 
TCOON,ioos:station:TCOON:031:1,2013-05-01T10:00:00Z,28.4073,-96.7122,0.0,1.0,50.0,,'1111122,1111122,1111122' 
TCOON,ioos:station:TCOON:031:1,2013-05-01T10:06:00Z,28.4073,-96.7122,0.0,1.3,67.0,1.6,'11111222,11111222,11111222' 
TCOON,ioos:station:TCOON:031:1,2013-05-01T10:12:00Z,28.4073,-96.7122,0.0,1.7,63.0,2.0,'11111222,11111222,11111222' 
TCOON,ioos:station:TCOON:031:1,2013-05-01T10:18:00Z,28.4073,-96.7122,0.0,1.4,51.0,2.0,'11111222,11111222,11111222' 
TCOON,ioos:station:TCOON:031:1,2013-05-01T10:24:00Z,28.4073,-96.7122,0.0,1.5,42.0,1.9,'11111222,11111222,11111222' 
TCOON,ioos:station:TCOON:031:1,2013-05-01T10:30:00Z,28.4073,-96.7122,0.0,1.3,36.0,2.0,'11111222,11111222,11111222' 
TCOON,ioos:station:TCOON:031:1,2013-05-01T10:36:00Z,28.4073,-96.7122,0.0,1.4,41.0,2.0,'11111222,11111222,11111222' 
TCOON,ioos:station:TCOON:031:1,2013-05-01T10:42:00Z,28.4073,-96.7122,0.0,1.5,39.0,2.2,'11111222,11111222,11111222' 
TCOON,ioos:station:TCOON:031:1,2013-05-01T10:48:00Z,28.4073,-96.7122,0.0,1.5,36.0,2.2,'11111222,11111222,11111222' 
TCOON,ioos:station:TCOON:031:1,2013-05-01T10:54:00Z,28.4073,-96.7122,0.0,1.4,36.0,1.9,'11111222,11111222,11111222' 
TCOON,ioos:station:TCOON:031:1,2013-05-01T11:00:00Z,28.4073,-96.7122,0.0,1.5,40.0,,'1111122,1111122,1111122' 
TCOON,ioos:station:TCOON:031:1,2013-05-01T11:06:00Z,28.4073,-96.7122,0.0,0.9,51.0,1.7,'11111222,11111222,11111222' 
TCOON,ioos:station:TCOON:031:1,2013-05-01T11:12:00Z,28.4073,-96.7122,0.0,1.5,44.0,1.7,'11111222,11111222,11111222' 
TCOON,ioos:station:TCOON:031:1,2013-05-01T11:18:00Z,28.4073,-96.7122,0.0,1.1,34.0,1.7,'11111222,11111222,11111222' 
TCOON,ioos:station:TCOON:031:1,2013-05-01T11:24:00Z,28.4073,-96.7122,0.0,1.3,36.0,1.6,'11111222,11111222,11111222' 
TCOON,ioos:station:TCOON:031:1,2013-05-01T11:30:00Z,28.4073,-96.7122,0.0,1.2,42.0,1.7,'11111222,11111222,11111222' 
TCOON,ioos:station:TCOON:031:1,2013-05-01T11:36:00Z,28.4073,-96.7122,0.0,1.2,41.0,1.7,'11111222,11111222,11111222' 
TCOON,ioos:station:TCOON:031:1,2013-05-01T11:42:00Z,28.4073,-96.7122,0.0,1.7,63.0,2.0,'11111222,11111222,11111222' 
TCOON,ioos:station:TCOON:031:1,2013-05-01T11:48:00Z,28.4073,-96.7122,0.0,1.2,75.0,2.0,'11111222,11111222,11111222' 
TCOON,ioos:station:TCOON:031:1,2013-05-01T11:54:00Z,28.4073,-96.7122,0.0,1.1,90.0,1.9,'11111222,11111222,11111222' 
TCOON,ioos:station:TCOON:031:1,2013-05-01T12:00:00Z,28.4073,-96.7122,0.0,1.0,40.0,,'1111122,1111122,1111122' 
TCOON,ioos:station:TCOON:031:1,2013-05-01T12:06:00Z,28.4073,-96.7122,0.0,1.0,74.0,1.7,'11111222,11111222,11111222' 
TCOON,ioos:station:TCOON:031:1,2013-05-01T12:12:00Z,28.4073,-96.7122,0.0,1.3,83.0,1.8,'11111222,11111222,11111222' 
TCOON,ioos:station:TCOON:031:1,2013-05-01T12:18:00Z,28.4073,-96.7122,0.0,1.7,89.0,2.2,'11111222,11111222,11111222' 
TCOON,ioos:station:TCOON:031:1,2013-05-01T12:24:00Z,28.4073,-96.7122,0.0,1.7,85.0,2.5,'11111222,11111222,11111222' 
TCOON,ioos:station:TCOON:031:1,2013-05-01T12:30:00Z,28.4073,-96.7122,0.0,1.9,94.0,2.7,'11111222,11111222,11111222' 
TCOON,ioos:station:TCOON:031:1,2013-05-01T12:36:00Z,28.4073,-96.7122,0.0,2.2,98.0,2.8,'11111222,11111222,11111222' 
TCOON,ioos:station:TCOON:031:1,2013-05-01T12:42:00Z,28.4073,-96.7122,0.0,1.7,84.0,2.4,'11111222,11111222,11111222' 
TCOON,ioos:station:TCOON:031:1,2013-05-01T12:48:00Z,28.4073,-96.7122,0.0,2.0,94.0,2.5,'11111222,11111222,11111222' 
TCOON,ioos:station:TCOON:031:1,2013-05-01T12:54:00Z,28.4073,-96.7122,0.0,2.4,106.0,2.8,'11111222,11111222,11111222' 
TCOON,ioos:station:TCOON:031:1,2013-05-01T13:00:00Z,28.4073,-96.7122,0.0,2.1,100.0,,'1111122,1111122,1111122' 
TCOON,ioos:station:TCOON:031:1,2013-05-01T13:06:00Z,28.4073,-96.7122,0.0,2.8,115.0,3.7,'11111222,11111222,11111222' 
TCOON,ioos:station:TCOON:031:1,2013-05-01T13:12:00Z,28.4073,-96.7122,0.0,2.9,102.0,3.9,'11111222,11111222,11111222' 
TCOON,ioos:station:TCOON:031:1,2013-05-01T13:18:00Z,28.4073,-96.7122,0.0,3.1,104.0,3.6,'11111222,11111222,11111222' 
TCOON,ioos:station:TCOON:031:1,2013-05-01T13:24:00Z,28.4073,-96.7122,0.0,2.7,97.0,3.6,'11111222,11111222,11111222' 
TCOON,ioos:station:TCOON:031:1,2013-05-01T13:30:00Z,28.4073,-96.7122,0.0,3.0,105.0,3.5,'11111222,11111222,11111222' 
TCOON,ioos:station:TCOON:031:1,2013-05-01T13:36:00Z,28.4073,-96.7122,0.0,2.4,105.0,3.3,'11111222,11111222,11111222' 
TCOON,ioos:station:TCOON:031:1,2013-05-01T13:42:00Z,28.4073,-96.7122,0.0,2.6,100.0,3.4,'11111222,11111222,11111222' 
TCOON,ioos:station:TCOON:031:1,2013-05-01T13:48:00Z,28.4073,-96.7122,0.0,3.3,99.0,4.2,'11111222,11111222,11111222' 
TCOON,ioos:station:TCOON:031:1,2013-05-01T13:54:00Z,28.4073,-96.7122,0.0,2.8,98.0,4.1,'11111222,11111222,11111222' 
TCOON,ioos:station:TCOON:031:1,2013-05-01T14:00:00Z,28.4073,-96.7122,0.0,2.6,110.0,,'1111122,1111122,1111122' 
TCOON,ioos:station:TCOON:031:1,2013-05-01T14:06:00Z,28.4073,-96.7122,0.0,3.1,75.0,4.0,'11111222,11111222,11111222' 
TCOON,ioos:station:TCOON:031:1,2013-05-01T14:12:00Z,28.4073,-96.7122,0.0,2.6,80.0,3.6,'11111222,11111222,11111222' 
TCOON,ioos:station:TCOON:031:1,2013-05-01T14:18:00Z,28.4073,-96.7122,0.0,3.3,103.0,4.1,'11111222,11111222,11111222' 
TCOON,ioos:station:TCOON:031:1,2013-05-01T14:24:00Z,28.4073,-96.7122,0.0,3.3,93.0,3.8,'11111222,11111222,11111222' 
TCOON,ioos:station:TCOON:031:1,2013-05-01T14:30:00Z,28.4073,-96.7122,0.0,2.8,97.0,4.0,'11111222,11111222,11111222' 
TCOON,ioos:station:TCOON:031:1,2013-05-01T14:36:00Z,28.4073,-96.7122,0.0,3.2,103.0,4.1,'11111222,11111222,11111222' 
TCOON,ioos:station:TCOON:031:1,2013-05-01T14:42:00Z,28.4073,-96.7122,0.0,3.1,93.0,4.2,'11111222,11111222,11111222' 
TCOON,ioos:station:TCOON:031:1,2013-05-01T14:48:00Z,28.4073,-96.7122,0.0,2.7,93.0,3.8,'11111222,11111222,11111222' 
TCOON,ioos:station:TCOON:031:1,2013-05-01T14:54:00Z,28.4073,-96.7122,0.0,3.4,97.0,4.6,'11111222,11111222,11111222' 
TCOON,ioos:station:TCOON:031:1,2013-05-01T15:00:00Z,28.4073,-96.7122,0.0,3.1,100.0,,'1111122,1111122,1111122' 
TCOON,ioos:station:TCOON:031:1,2013-05-01T15:06:00Z,28.4073,-96.7122,0.0,2.7,93.0,4.2,'11111222,11111222,11111222' 
TCOON,ioos:station:TCOON:031:1,2013-05-01T15:12:00Z,28.4073,-96.7122,0.0,3.8,96.0,5.1,'11111222,11111222,11111222' 
TCOON,ioos:station:TCOON:031:1,2013-05-01T15:18:00Z,28.4073,-96.7122,0.0,2.4,95.0,4.4,'11111222,11111222,11111222' 
TCOON,ioos:station:TCOON:031:1,2013-05-01T15:24:00Z,28.4073,-96.7122,0.0,3.5,89.0,5.5,'11111222,11111222,11111222' 
TCOON,ioos:station:TCOON:031:1,2013-05-01T15:30:00Z,28.4073,-96.7122,0.0,4.4,97.0,5.2,'11111222,11111222,11111222' 
TCOON,ioos:station:TCOON:031:1,2013-05-01T15:36:00Z,28.4073,-96.7122,0.0,3.7,106.0,5.9,'11111222,11111222,11111222' 
TCOON,ioos:station:TCOON:031:1,2013-05-01T15:42:00Z,28.4073,-96.7122,0.0,4.4,113.0,5.2,'11111222,11111222,11111222' 
TCOON,ioos:station:TCOON:031:1,2013-05-01T15:48:00Z,28.4073,-96.7122,0.0,3.6,101.0,4.4,'11111222,11111222,11111222' 
TCOON,ioos:station:TCOON:031:1,2013-05-01T15:54:00Z,28.4073,-96.7122,0.0,2.5,101.0,5.0,'11111222,11111222,11111222' 
TCOON,ioos:station:TCOON:031:1,2013-05-01T16:00:00Z,28.4073,-96.7122,0.0,3.6,110.0,,'1111122,1111122,1111122' 
TCOON,ioos:station:TCOON:031:1,2013-05-01T16:06:00Z,28.4073,-96.7122,0.0,3.6,111.0,4.8,'11111222,11111222,11111222' 
TCOON,ioos:station:TCOON:031:1,2013-05-01T16:12:00Z,28.4073,-96.7122,0.0,3.2,120.0,4.2,'11111222,11111222,11111222' 
TCOON,ioos:station:TCOON:031:1,2013-05-01T16:18:00Z,28.4073,-96.7122,0.0,3.7,114.0,5.5,'11111222,11111222,11111222' 
TCOON,ioos:station:TCOON:031:1,2013-05-01T16:24:00Z,28.4073,-96.7122,0.0,3.6,131.0,4.8,'11111222,11111222,11111222' 
TCOON,ioos:station:TCOON:031:1,2013-05-01T16:30:00Z,28.4073,-96.7122,0.0,3.5,98.0,4.9,'11111222,11111222,11111222' 
TCOON,ioos:station:TCOON:031:1,2013-05-01T16:36:00Z,28.4073,-96.7122,0.0,3.5,101.0,6.1,'11111222,11111222,11111222' 
TCOON,ioos:station:TCOON:031:1,2013-05-01T16:42:00Z,28.4073,-96.7122,0.0,4.7,114.0,6.5,'11111222,11111222,11111222' 
TCOON,ioos:station:TCOON:031:1,2013-05-01T16:48:00Z,28.4073,-96.7122,0.0,4.6,113.0,5.9,'11111222,11111222,11111222' 
TCOON,ioos:station:TCOON:031:1,2013-05-01T16:54:00Z,28.4073,-96.7122,0.0,3.8,106.0,5.6,'11111222,11111222,11111222' 
TCOON,ioos:station:TCOON:031:1,2013-05-01T17:00:00Z,28.4073,-96.7122,0.0,3.6,100.0,,'1111122,1111122,1111122' 
TCOON,ioos:station:TCOON:031:1,2013-05-01T17:06:00Z,28.4073,-96.7122,0.0,5.2,110.0,6.1,'11111222,11111222,11111222' 
TCOON,ioos:station:TCOON:031:1,2013-05-01T17:12:00Z,28.4073,-96.7122,0.0,4.3,84.0,6.8,'11111222,11111222,11111222' 
TCOON,ioos:station:TCOON:031:1,2013-05-01T17:18:00Z,28.4073,-96.7122,0.0,5.3,107.0,6.8,'11111222,11111222,11111222' 
TCOON,ioos:station:TCOON:031:1,2013-05-01T17:24:00Z,28.4073,-96.7122,0.0,5.8,126.0,6.6,'11111222,11111222,11111222' 
TCOON,ioos:station:TCOON:031:1,2013-05-01T17:30:00Z,28.4073,-96.7122,0.0,4.8,111.0,6.3,'11111222,11111222,11111222' 
TCOON,ioos:station:TCOON:031:1,2013-05-01T17:36:00Z,28.4073,-96.7122,0.0,5.1,103.0,6.9,'11111222,11111222,11111222' 
TCOON,ioos:station:TCOON:031:1,2013-05-01T17:42:00Z,28.4073,-96.7122,0.0,4.0,78.0,6.5,'11111222,11111222,11111222' 
TCOON,ioos:station:TCOON:031:1,2013-05-01T17:48:00Z,28.4073,-96.7122,0.0,4.0,86.0,6.1,'11111222,11111222,11111222' 
TCOON,ioos:station:TCOON:031:1,2013-05-01T17:54:00Z,28.4073,-96.7122,0.0,5.4,105.0,6.7,'11111222,11111222,11111222' 
TCOON,ioos:station:TCOON:031:1,2013-05-01T18:00:00Z,28.4073,-96.7122,0.0,5.1,100.0,,'1111122,1111122,1111122' 
TCOON,ioos:station:TCOON:031:1,2013-05-01T18:06:00Z,28.4073,-96.7122,0.0,2.6,113.0,5.7,'11111222,11111222,11111222' 
TCOON,ioos:station:TCOON:031:1,2013-05-01T18:12:00Z,28.4073,-96.7122,0.0,3.4,119.0,8.6,'11111222,11111222,11111222' 
TCOON,ioos:station:TCOON:031:1,2013-05-01T18:18:00Z,28.4073,-96.7122,0.0,3.9,134.0,5.2,'11111222,11111222,11111222' 
TCOON,ioos:station:TCOON:031:1,2013-05-01T18:24:00Z,28.4073,-96.7122,0.0,3.5,91.0,5.4,'11111222,11111222,11111222' 
TCOON,ioos:station:TCOON:031:1,2013-05-01T18:30:00Z,28.4073,-96.7122,0.0,4.4,110.0,6.2,'11111222,11111222,11111222' 
TCOON,ioos:station:TCOON:031:1,2013-05-01T18:36:00Z,28.4073,-96.7122,0.0,3.4,103.0,6.4,'11111222,11111222,11111222' 
TCOON,ioos:station:TCOON:031:1,2013-05-01T18:42:00Z,28.4073,-96.7122,0.0,2.8,105.0,5.0,'11111222,11111222,11111222' 
TCOON,ioos:station:TCOON:031:1,2013-05-01T18:48:00Z,28.4073,-96.7122,0.0,3.9,125.0,5.2,'11111222,11111222,11111222' 
TCOON,ioos:station:TCOON:031:1,2013-05-01T18:54:00Z,28.4073,-96.7122,0.0,3.1,133.0,5.1,'11111222,11111222,11111222' 
TCOON,ioos:station:TCOON:031:1,2013-05-01T19:00:00Z,28.4073,-96.7122,0.0,3.6,100.0,,'1111122,1111122,1111122' 
TCOON,ioos:station:TCOON:031:1,2013-05-01T19:06:00Z,28.4073,-96.7122,0.0,5.8,128.0,6.7,'11111222,11111222,11111222' 
TCOON,ioos:station:TCOON:031:1,2013-05-01T19:12:00Z,28.4073,-96.7122,0.0,4.6,128.0,6.6,'11111222,11111222,11111222' 
TCOON,ioos:station:TCOON:031:1,2013-05-01T19:18:00Z,28.4073,-96.7122,0.0,4.9,98.0,6.1,'11111222,11111222,11111222' 
TCOON,ioos:station:TCOON:031:1,2013-05-01T19:24:00Z,28.4073,-96.7122,0.0,4.3,100.0,6.7,'11111222,11111222,11111222' 
TCOON,ioos:station:TCOON:031:1,2013-05-01T19:30:00Z,28.4073,-96.7122,0.0,4.3,139.0,5.1,'11111222,11111222,11111222' 
TCOON,ioos:station:TCOON:031:1,2013-05-01T19:36:00Z,28.4073,-96.7122,0.0,3.5,109.0,5.8,'11111222,11111222,11111222' 
TCOON,ioos:station:TCOON:031:1,2013-05-01T19:42:00Z,28.4073,-96.7122,0.0,4.2,110.0,6.3,'11111222,11111222,11111222' 
TCOON,ioos:station:TCOON:031:1,2013-05-01T19:48:00Z,28.4073,-96.7122,0.0,4.1,109.0,6.3,'11111222,11111222,11111222' 
TCOON,ioos:station:TCOON:031:1,2013-05-01T19:54:00Z,28.4073,-96.7122,0.0,6.5,93.0,8.2,'11111222,11111222,11111222' 
TCOON,ioos:station:TCOON:031:1,2013-05-01T20:00:00Z,28.4073,-96.7122,0.0,3.6,110.0,,'1111122,1111122,1111122' 
TCOON,ioos:station:TCOON:031:1,2013-05-01T20:06:00Z,28.4073,-96.7122,0.0,4.2,100.0,5.6,'11111222,11111222,11111222' 
TCOON,ioos:station:TCOON:031:1,2013-05-01T20:12:00Z,28.4073,-96.7122,0.0,4.2,115.0,6.0,'11111222,11111222,11111222' 
TCOON,ioos:station:TCOON:031:1,2013-05-01T20:18:00Z,28.4073,-96.7122,0.0,3.5,85.0,5.9,'11111222,11111222,11111222' 
TCOON,ioos:station:TCOON:031:1,2013-05-01T20:24:00Z,28.4073,-96.7122,0.0,3.6,91.0,6.7,'11111222,11111222,11111222' 